This is the latest recevied weather packets stored in our database for station/object KG7BDA. If no packets are shown the sender has not sent any weather packets the latest 10 day(s).
| Time | Temp. | Humidity | Pressure | Rain* | Wind** | Luminosity | Snow |
|---|---|---|---|---|---|---|---|
| 1778156485 | 11.11° C | 76% | 1016 hPa | 0 mm | - | - | - |
| 1778156125 | 10.56° C | 77% | 1016 hPa | 0 mm | - | - | - |
| 1778155765 | 10.56° C | 75% | 1015.9 hPa | 0 mm | - | - | - |
| 1778155405 | 10.56° C | 76% | 1015.9 hPa | 0 mm | - | - | - |
| 1778155045 | 10.56° C | 75% | 1015.8 hPa | 0 mm | - | - | - |
| 1778154684 | 10.56° C | 74% | 1015.9 hPa | 0 mm | - | - | - |
| 1778154324 | 10.56° C | 75% | 1016 hPa | 0 mm | - | - | - |
| 1778153965 | 11.11° C | 73% | 1016 hPa | 0 mm | - | - | - |
| 1778153604 | 11.67° C | 72% | 1016 hPa | 0 mm | - | - | - |
| 1778153244 | 11.11° C | 73% | 1015.9 hPa | 0 mm | - | - | - |
| 1778152883 | 11.67° C | 73% | 1016 hPa | 0 mm | - | - | - |
| 1778152524 | 11.67° C | 70% | 1016 hPa | 0 mm | - | - | - |
| 1778152165 | 11.67° C | 74% | 1016.1 hPa | 0 mm | - | - | - |
| 1778151804 | 10.56° C | 74% | 1016.1 hPa | 0 mm | - | - | - |
| 1778151445 | 11.11° C | 71% | 1016 hPa | 0 mm | - | - | - |
| 1778151085 | 11.11° C | 72% | 1015.9 hPa | 0 mm | - | - | - |
| 1778150724 | 11.11° C | 72% | 1015.7 hPa | 0 mm | - | - | - |
| 1778150364 | 11.11° C | 72% | 1015.9 hPa | 0 mm | - | - | - |
| 1778150004 | 11.11° C | 73% | 1015.8 hPa | 0 mm | - | - | - |
| 1778149644 | 11.11° C | 73% | 1015.8 hPa | 0 mm | - | - | - |
| 1778149285 | 11.67° C | 69% | 1015.7 hPa | 0 mm | - | - | - |
| 1778148924 | 12.22° C | 70% | 1015.6 hPa | 0 mm | - | - | - |
| 1778148564 | 12.78° C | 70% | 1015.7 hPa | 0 mm | - | - | - |
| 1778148204 | 12.22° C | 70% | 1015.7 hPa | 0 mm | - | - | - |
| 1778147844 | 12.22° C | 70% | 1015.7 hPa | 0 mm | - | - | - |
* Rain latest hour (hover to see other rain measurements)
** Current wind speed in m/s (hover to see current wind gust speed)